LUCH 5V

Last updated on Wed Sep 17 2025 00:02:34 GMT+0000 (Coordinated Universal Time)

1 39727U 14023A 25259.64638235 -.00000287 00000+0 00000+0 0 9994 2 39727 4.4447 72.3215 0003128 148.2987 102.6914 1.00272518 41617
UTC large
Height (km)
Speed (km/s)
/
Latitude / Longitude
Inclination (degrees)
Orbital Period (minutes)
Azimuth
Elevation
Range (km)
Doppler Factor

Next 0 passes for location: London (51.5072 / 0.1276)

Sorry there are no passes over London.